When you browse on this site, cookies collect data to enhance your experience and personalize the content and advertising you see.
Visit our Privacy Policy to learn more. By continuing to use the site, you agree to this use of cookies and data.
  • In United Kingdom
  • List of Countries
  • For 7 days
  • Water Temperature
  • Weather Map
  • Weather Widgets
  • user-avatar
    Login

    Hourly Weather Anakapalle

    Today, 2 April, Thursday

    Time Temperature Precipitation Wind Pressure Humidity
    00:00 +28°C° 0 mm 2 mps 743 mmHg 68%
    01:00 +28°C° 0 mm 2 mps 742 mmHg 67%
    02:00 +28°C° 0 mm 2 mps 742 mmHg 67%
    03:00 +28°C° 0 mm 2 mps 741 mmHg 66%
    04:00 +27°C° 0 mm 2 mps 741 mmHg 66%
    05:00 +27°C° 0 mm 2 mps 741 mmHg 65%
    06:00 +27°C° 0 mm 2 mps 742 mmHg 65%
    07:00 +29°C° 0 mm 2 mps 742 mmHg 58%
    08:00 +31°C° 0 mm 3 mps 743 mmHg 50%
    09:00 +34°C° 0 mm 3 mps 743 mmHg 43%
    10:00 +36°C° 0 mm 4 mps 743 mmHg 39%
    11:00 +37°C° 0 mm 4 mps 743 mmHg 35%
    12:00 +40°C° 0 mm 5 mps 743 mmHg 31%
    13:00 +40°C° 0 mm 6 mps 742 mmHg 34%
    14:00 +39°C° 0 mm 6 mps 741 mmHg 37%
    15:00 +39°C° 0 mm 7 mps 740 mmHg 40%
    16:00 +36°C° 0 mm 6 mps 740 mmHg 45%
    17:00 +35°C° 0 mm 6 mps 740 mmHg 50%
    18:00 +34°C° 0 mm 5 mps 740 mmHg 56%
    19:00 +32°C° 0 mm 4 mps 741 mmHg 63%
    20:00 +30°C° 0 mm 4 mps 742 mmHg 70%
    21:00 +29°C° 0 mm 3 mps 742 mmHg 77%
    22:00 +28°C° 0 mm 3 mps 742 mmHg 79%
    23:00 +28°C° 0 mm 3 mps 742 mmHg 81%

    Tomorrow, 3 April, Friday

    Time Temperature Precipitation Wind Pressure Humidity
    00:00 +28°C° 0 mm 3 mps 742 mmHg 83%
    01:00 +27°C° 0 mm 3 mps 742 mmHg 81%
    02:00 +27°C° 0 mm 3 mps 742 mmHg 80%
    03:00 +27°C° 0 mm 2 mps 741 mmHg 79%
    04:00 +27°C° 0 mm 2 mps 742 mmHg 78%
    05:00 +26°C° 0 mm 2 mps 742 mmHg 77%
    06:00 +26°C° 0 mm 2 mps 742 mmHg 77%
    07:00 +28°C° 0 mm 2 mps 743 mmHg 67%
    08:00 +30°C° 0 mm 3 mps 743 mmHg 58%
    09:00 +33°C° 0 mm 3 mps 744 mmHg 48%
    10:00 +35°C° 0 mm 4 mps 744 mmHg 44%
    11:00 +36°C° 0 mm 5 mps 744 mmHg 40%
    12:00 +39°C° 0 mm 5 mps 743 mmHg 36%
    13:00 +38°C° 0 mm 6 mps 743 mmHg 39%
    14:00 +38°C° 0 mm 7 mps 742 mmHg 41%
    15:00 +38°C° 0 mm 8 mps 742 mmHg 44%
    16:00 +35°C° 0 mm 7 mps 742 mmHg 49%
    17:00 +34°C° 0 mm 6 mps 741 mmHg 55%
    18:00 +33°C° 0 mm 6 mps 741 mmHg 60%
    19:00 +32°C° 0 mm 5 mps 742 mmHg 66%
    20:00 +29°C° 0 mm 4 mps 743 mmHg 72%
    21:00 +28°C° 0 mm 3 mps 743 mmHg 78%
    22:00 +28°C° 0 mm 3 mps 743 mmHg 79%
    23:00 +28°C° 0 mm 3 mps 743 mmHg 81%

    Day after tomorrow, 4 April, Saturday

    Time Temperature Precipitation Wind Pressure Humidity
    00:00 +27°C° 0 mm 3 mps 743 mmHg 83%
    01:00 +27°C° 0 mm 3 mps 743 mmHg 82%
    02:00 +27°C° 0 mm 3 mps 742 mmHg 82%
    03:00 +26°C° 0 mm 3 mps 742 mmHg 82%
    04:00 +26°C° 0 mm 2 mps 742 mmHg 82%
    05:00 +26°C° 0 mm 2 mps 742 mmHg 82%
    06:00 +26°C° 0 mm 2 mps 743 mmHg 82%
    07:00 +28°C° 0 mm 2 mps 743 mmHg 74%
    08:00 +29°C° 0 mm 3 mps 744 mmHg 65%
    09:00 +31°C° 0 mm 3 mps 745 mmHg 57%
    10:00 +34°C° 0 mm 4 mps 744 mmHg 50%
    11:00 +36°C° 0 mm 4 mps 744 mmHg 43%
    12:00 +39°C° 0 mm 5 mps 744 mmHg 36%
    13:00 +39°C° 0 mm 5 mps 744 mmHg 36%
    14:00 +37°C° 0 mm 5 mps 743 mmHg 37%
    15:00 +38°C° 0 mm 6 mps 742 mmHg 37%
    16:00 +35°C° 0 mm 5 mps 742 mmHg 44%
    17:00 +34°C° 0 mm 4 mps 742 mmHg 52%
    18:00 +32°C° 0 mm 4 mps 742 mmHg 59%
    19:00 +30°C° 0 mm 3 mps 742 mmHg 65%
    20:00 +29°C° 0 mm 3 mps 743 mmHg 70%
    21:00 +28°C° 0 mm 3 mps 744 mmHg 75%
    22:00 +28°C° 0 mm 2 mps 744 mmHg 76%
    23:00 +28°C° 0 mm 2 mps 744 mmHg 77%

    5 April, Sunday

    Time Temperature Precipitation Wind Pressure Humidity
    00:00 +27°C° 0 mm 2 mps 744 mmHg 78%
    01:00 +27°C° 0 mm 2 mps 743 mmHg 79%
    02:00 +27°C° 0 mm 2 mps 743 mmHg 80%
    03:00 +26°C° 0 mm 3 mps 742 mmHg 81%
    04:00 +26°C° 0 mm 2 mps 742 mmHg 81%
    05:00 +26°C° 0 mm 2 mps 742 mmHg 81%
    06:00 +25°C° 0 mm 2 mps 743 mmHg 81%
    07:00 +27°C° 0 mm 3 mps 743 mmHg 72%
    08:00 +29°C° 0 mm 3 mps 744 mmHg 63%
    09:00 +31°C° 0 mm 3 mps 745 mmHg 54%
    10:00 +34°C° 0 mm 4 mps 744 mmHg 48%
    11:00 +36°C° 0 mm 5 mps 744 mmHg 42%
    12:00 +39°C° 0 mm 5 mps 744 mmHg 36%
    13:00 +39°C° 0 mm 5 mps 744 mmHg 36%
    14:00 +37°C° 0 mm 5 mps 743 mmHg 37%
    15:00 +37°C° 0 mm 5 mps 742 mmHg 38%
    16:00 +35°C° 0 mm 5 mps 742 mmHg 45%
    17:00 +34°C° 0 mm 4 mps 742 mmHg 52%
    18:00 +32°C° 0 mm 4 mps 742 mmHg 59%
    19:00 +32°C° 0 mm 4 mps 743 mmHg 62%
    20:00 +30°C° 0 mm 3 mps 743 mmHg 65%
    21:00 +29°C° 0 mm 3 mps 744 mmHg 67%
    22:00 +29°C° 0 mm 3 mps 744 mmHg 68%
    23:00 +29°C° 0 mm 3 mps 744 mmHg 68%

    6 April, Monday

    Time Temperature Precipitation Wind Pressure Humidity
    00:00 +29°C° 0 mm 3 mps 744 mmHg 68%
    01:00 +29°C° 0 mm 3 mps 743 mmHg 70%
    02:00 +28°C° 0 mm 3 mps 743 mmHg 72%
    03:00 +28°C° 0 mm 3 mps 742 mmHg 74%
    04:00 +28°C° 0 mm 3 mps 742 mmHg 75%
    05:00 +27°C° 0 mm 3 mps 742 mmHg 76%
    06:00 +27°C° 0 mm 3 mps 742 mmHg 77%
    07:00 +29°C° 0 mm 3 mps 743 mmHg 68%
    08:00 +31°C° 0 mm 3 mps 743 mmHg 59%
    09:00 +34°C° 0 mm 4 mps 744 mmHg 51%
    10:00 +35°C° 0 mm 4 mps 744 mmHg 46%
    11:00 +37°C° 0 mm 5 mps 744 mmHg 41%
    12:00 +40°C° 0 mm 5 mps 743 mmHg 36%
    13:00 +39°C° 0 mm 6 mps 743 mmHg 39%
    14:00 +38°C° 0 mm 6 mps 742 mmHg 43%
    15:00 +35°C° 0 mm 6 mps 741 mmHg 47%
    16:00 +34°C° 0 mm 6 mps 741 mmHg 52%
    17:00 +33°C° 0 mm 6 mps 741 mmHg 57%
    18:00 +32°C° 0 mm 6 mps 741 mmHg 63%
    19:00 +32°C° 0 mm 5 mps 741 mmHg 66%
    20:00 +30°C° 0 mm 4 mps 742 mmHg 70%
    21:00 +29°C° 0 mm 3 mps 743 mmHg 74%
    22:00 +29°C° 0 mm 3 mps 742 mmHg 76%
    23:00 +29°C° 0 mm 3 mps 742 mmHg 77%

    7 April, Tuesday

    Time Temperature Precipitation Wind Pressure Humidity
    00:00 +29°C° 0 mm 2 mps 742 mmHg 79%
    01:00 +28°C° 0 mm 2 mps 742 mmHg 79%
    02:00 +28°C° 0 mm 3 mps 741 mmHg 80%
    03:00 +28°C° 0 mm 3 mps 741 mmHg 81%
    04:00 +27°C° 0 mm 3 mps 741 mmHg 80%
    05:00 +27°C° 0 mm 3 mps 741 mmHg 80%
    06:00 +27°C° 0 mm 3 mps 741 mmHg 79%
    07:00 +29°C° 0 mm 3 mps 742 mmHg 68%
    08:00 +32°C° 0 mm 4 mps 742 mmHg 57%
    09:00 +34°C° 0 mm 4 mps 743 mmHg 46%
    10:00 +36°C° 0 mm 5 mps 743 mmHg 43%
    11:00 +38°C° 0 mm 6 mps 743 mmHg 39%
    12:00 +40°C° 0 mm 6 mps 742 mmHg 36%
    13:00 +39°C° 0 mm 6 mps 742 mmHg 41%
    14:00 +36°C° 0 mm 6 mps 741 mmHg 47%
    15:00 +35°C° 0 mm 6 mps 740 mmHg 53%
    16:00 +34°C° 0 mm 6 mps 740 mmHg 56%
    17:00 +33°C° 0 mm 6 mps 740 mmHg 59%
    18:00 +33°C° 0 mm 6 mps 740 mmHg 62%
    19:00 +32°C° 0 mm 5 mps 741 mmHg 60%
    20:00 +32°C° 0 mm 4 mps 741 mmHg 57%
    21:00 +31°C° 0 mm 3 mps 742 mmHg 55%
    22:00 +30°C° 0 mm 2 mps 742 mmHg 56%
    23:00 +30°C° 0 mm 2 mps 742 mmHg 57%
    Show more